"Pseudo-MPEC" for X67620

Created 2020 Mar 28 16:07:11 UT using Find_Orb

Click here for an explanation of pseudo-MPECs

 
 Astrometry: 
     X67620   C2020 03 178ri-y4xAstrometry5d%!redacted;6$/click^9L2OZsuH5hu3OD29
     X67620   C2020 03 17[%GJg!^here?6#x79w;cDECq@E5/30wldpCe/cUfaF%FVY'?XL=OD29
     X67620   C2020 03 17Fb?UP)RlO/VRu/oPufor1vTOw0b$)@*FpP/iexplanation__rlQD29

Station data:
(D29) Purple Mountain Observatory, XuYi Station  (N32.734366 E118.463900)
   China.  Observers H. B. Zhao, B. Li, G. Zhaori, R. Q. Hong, L. F. Hu.
   Measurers H. B. Zhao, B. Li. H. Lu, G. Zhaori. 1.04-m f/1.8 Schmidt + CCD.

Orbital elements:  X67620
   Perihelion 2020 Apr 27.860875 +/- 50.6 TT = 20:39:39 (JD 2458967.360875)
Epoch 2020 Mar 18.0 TT = JDT 2458926.5   Earth MOID: 0.4800   Ma: 0.0226
M 348.02069579 +/- 24               (J2000 ecliptic)          AutoNEOCP
n   0.29317297 +/- 0.289            Peri.   85.58323 +/- 90
a   2.24415797 +/- 1.48             Node   125.51282 +/- 55
e   0.3445296 +/- 0.248             Incl.    5.48799 +/- 3.9
P   3.36                   H 21.2   G  0.15   U 11.9  SR
q 1.47097912 +/- 0.548    Q 3.01733683 +/- 76
From 3 observations 2020 Mar. 17 (40.7 min); mean residual 0".29
Residuals in arcseconds: 
200317 D29  .05-  .28+    200317 D29  .11+  .57-    200317 D29  .05-  .28+    

Ephemerides (geocentric):
Date (UTC) HH   RA              Dec         delta   r     elong  mag " sig PA
---- -- -- --  -------------   -----------  ------ ------ -----  --- ---- ---
2020 03 28 16  13 33 33.124   +06 10 55.31  .51131 1.4922 161.5 21.4  55d   1
2020 03 28 17  13 33 33.015   +06 11 18.28  .51119 1.4921 161.6 21.4  55d   1
2020 03 28 18  13 33 32.902   +06 11 41.24  .51108 1.4920 161.6 21.4  55d   1
2020 03 28 19  13 33 32.787   +06 12 04.19  .51097 1.4920 161.6 21.4  55d   1
2020 03 28 20  13 33 32.670   +06 12 27.12  .51086 1.4919 161.6 21.4  55d   1
2020 03 28 21  13 33 32.549   +06 12 50.04  .51075 1.4919 161.7 21.4  55d   1
2020 03 28 22  13 33 32.426   +06 13 12.94  .51064 1.4918 161.7 21.4  55d   1
2020 03 28 23  13 33 32.301   +06 13 35.83  .51053 1.4918 161.7 21.4  55d   1
2020 03 29 00  13 33 32.173   +06 13 58.70  .51042 1.4917 161.7 21.4  54d   2
2020 03 29 01  13 33 32.042   +06 14 21.56  .51031 1.4916 161.7 21.4  54d   2
2020 03 29 02  13 33 31.908   +06 14 44.41  .51020 1.4916 161.8 21.4  54d   2
2020 03 29 03  13 33 31.772   +06 15 07.24  .51009 1.4915 161.8 21.4  54d   2
2020 03 29 04  13 33 31.633   +06 15 30.06  .50998 1.4915 161.8 21.4  54d   2
2020 03 29 05  13 33 31.492   +06 15 52.86  .50987 1.4914 161.8 21.4  54d   2
2020 03 29 06  13 33 31.347   +06 16 15.65  .50976 1.4914 161.8 21.4  54d   2
2020 03 29 07  13 33 31.201   +06 16 38.42  .50965 1.4913 161.9 21.4  54d   2
2020 03 29 08  13 33 31.051   +06 17 01.18  .50954 1.4912 161.9 21.4  54d   2
2020 03 29 09  13 33 30.900   +06 17 23.92  .50943 1.4912 161.9 21.4  54d   1
2020 03 29 10  13 33 30.745   +06 17 46.65  .50933 1.4911 161.9 21.4  55d   1
2020 03 29 11  13 33 30.588   +06 18 09.36  .50922 1.4911 161.9 21.4  55d   1
2020 03 29 12  13 33 30.428   +06 18 32.06  .50911 1.4910 162.0 21.4  55d   1
2020 03 29 13  13 33 30.266   +06 18 54.74  .50901 1.4910 162.0 21.4  55d   1
2020 03 29 14  13 33 30.101   +06 19 17.41  .50890 1.4909 162.0 21.4  55d   1
2020 03 29 15  13 33 29.934   +06 19 40.06  .50879 1.4909 162.0 21.4  55d   1
2020 03 29 16  13 33 29.764   +06 20 02.70  .50869 1.4908 162.0 21.4  55d   1
2020 03 29 17  13 33 29.591   +06 20 25.32  .50858 1.4907 162.1 21.3  55d   1
2020 03 29 18  13 33 29.416   +06 20 47.92  .50848 1.4907 162.1 21.3  55d   1
2020 03 29 19  13 33 29.239   +06 21 10.51  .50837 1.4906 162.1 21.3  55d   2
2020 03 29 20  13 33 29.059   +06 21 33.08  .50827 1.4906 162.1 21.3  56d   2
2020 03 29 21  13 33 28.876   +06 21 55.63  .50816 1.4905 162.1 21.3  56d   2
2020 03 29 22  13 33 28.691   +06 22 18.17  .50806 1.4905 162.2 21.3  56d   2
2020 03 29 23  13 33 28.503   +06 22 40.70  .50795 1.4904 162.2 21.3  56d   2
2020 03 30 00  13 33 28.313   +06 23 03.20  .50785 1.4904 162.2 21.3  56d   2
2020 03 30 01  13 33 28.120   +06 23 25.69  .50774 1.4903 162.2 21.3  56d   2
2020 03 30 02  13 33 27.925   +06 23 48.17  .50764 1.4902 162.2 21.3  56d   2
2020 03 30 03  13 33 27.727   +06 24 10.63  .50754 1.4902 162.3 21.3  56d   1
2020 03 30 04  13 33 27.527   +06 24 33.07  .50744 1.4901 162.3 21.3  56d   1
2020 03 30 05  13 33 27.324   +06 24 55.49  .50733 1.4901 162.3 21.3  56d   1
2020 03 30 06  13 33 27.119   +06 25 17.90  .50723 1.4900 162.3 21.3  56d   1
2020 03 30 07  13 33 26.911   +06 25 40.29  .50713 1.4900 162.3 21.3  56d   1
2020 03 30 08  13 33 26.701   +06 26 02.66  .50703 1.4899 162.3 21.3  57d   1
2020 03 30 09  13 33 26.489   +06 26 25.01  .50693 1.4899 162.4 21.3  57d   1
2020 03 30 10  13 33 26.274   +06 26 47.35  .50683 1.4898 162.4 21.3  57d   1
2020 03 30 11  13 33 26.056   +06 27 09.67  .50672 1.4897 162.4 21.3  57d   1
2020 03 30 12  13 33 25.836   +06 27 31.97  .50662 1.4897 162.4 21.3  57d   1
2020 03 30 13  13 33 25.614   +06 27 54.26  .50652 1.4896 162.4 21.3  57d   1
2020 03 30 14  13 33 25.389   +06 28 16.53  .50642 1.4896 162.5 21.3  57d   1
2020 03 30 15  13 33 25.162   +06 28 38.78  .50632 1.4895 162.5 21.3  57d   1